Time,TemperatureF,DewpointF,PressureIn,WindDirection,WindDirectionDegrees,WindSpeedMPH,WindSpeedGustMPH,Humidity,HourlyPrecipIn,Conditions,Clouds,dailyrainin,SoftwareType,DateUTC
2013-02-11 00:00:00,40.3,36.4,29.50,East,90,13.0,19.7,86,0.01,,,0.02,pywws,2013-02-11 00:00:00,
2013-02-11 00:12:00,40.3,36.4,29.50,East,90,6.9,13.0,86,0.01,,,0.00,pywws,2013-02-11 00:12:00,
2013-02-11 00:23:00,40.5,36.6,29.51,NE,45,12.1,18.3,86,0.01,,,0.00,pywws,2013-02-11 00:23:00,
2013-02-11 00:32:00,40.3,36.4,29.51,East,90,10.7,17.5,86,0.01,,,0.00,pywws,2013-02-11 00:32:00,
2013-02-11 00:43:00,40.3,36.4,29.51,NE,45,15.2,21.2,86,0.01,,,0.00,pywws,2013-02-11 00:43:00,
2013-02-11 00:52:00,40.3,36.4,29.52,NE,45,12.1,22.8,86,0.01,,,0.00,pywws,2013-02-11 00:52:00,
2013-02-11 01:03:00,40.3,36.1,29.52,East,90,9.2,16.8,85,0.00,,,0.00,pywws,2013-02-11 01:03:00,
2013-02-11 01:12:00,40.3,36.1,29.52,NE,45,10.7,19.7,85,0.00,,,0.00,pywws,2013-02-11 01:12:00,
2013-02-11 01:23:00,40.5,36.3,29.53,East,90,9.8,17.5,85,0.00,,,0.00,pywws,2013-02-11 01:23:00,
2013-02-11 01:32:00,40.3,36.1,29.53,NNW,338,15.2,21.2,85,0.00,,,0.00,pywws,2013-02-11 01:32:00,
2013-02-11 01:43:00,40.1,35.7,29.53,East,90,13.0,18.3,84,0.00,,,0.00,pywws,2013-02-11 01:43:00,
2013-02-11 01:52:00,40.1,35.7,29.54,East,90,8.3,11.4,84,0.00,,,0.00,pywws,2013-02-11 01:52:00,
2013-02-11 02:03:00,40.1,35.7,29.54,East,90,10.7,15.9,84,0.00,,,0.00,pywws,2013-02-11 02:03:00,
2013-02-11 02:12:00,39.9,35.5,29.54,SE,135,8.3,16.8,84,0.00,,,0.00,pywws,2013-02-11 02:12:00,
2013-02-11 02:23:00,39.9,35.5,29.54,East,90,10.7,16.8,84,0.00,,,0.00,pywws,2013-02-11 02:23:00,
2013-02-11 02:32:00,39.9,35.5,29.54,East,90,9.8,16.8,84,0.00,,,0.00,pywws,2013-02-11 02:32:00,
2013-02-11 02:43:00,39.7,35.3,29.54,East,90,8.3,15.2,84,0.01,,,0.01,pywws,2013-02-11 02:43:00,
2013-02-11 02:52:00,39.7,35.3,29.55,NE,45,12.1,16.8,84,0.01,,,0.01,pywws,2013-02-11 02:52:00,
2013-02-11 03:03:00,39.7,35.3,29.55,SE,135,7.6,13.6,84,0.01,,,0.01,pywws,2013-02-11 03:03:00,
2013-02-11 03:12:00,39.7,35.3,29.55,NE,45,9.2,15.2,84,0.01,,,0.01,pywws,2013-02-11 03:12:00,
2013-02-11 03:23:00,39.7,35.3,29.55,NE,45,3.8,6.9,84,0.01,,,0.01,pywws,2013-02-11 03:23:00,
2013-02-11 03:32:00,39.7,35.3,29.55,East,90,11.4,19.0,84,0.01,,,0.01,pywws,2013-02-11 03:32:00,
2013-02-11 03:43:00,39.9,35.5,29.56,North,-999,7.6,10.7,84,0.00,,,0.01,pywws,2013-02-11 03:43:00,
2013-02-11 03:52:00,40.1,35.7,29.56,East,90,10.7,15.9,84,0.00,,,0.01,pywws,2013-02-11 03:52:00,
2013-02-11 03:54:00,40.1,35.4,29.56,East,90,9.2,15.2,83,0.00,,,0.01,pywws,2013-02-11 03:54:00,
2013-02-11 04:04:00,40.3,35.5,29.57,East,90,11.4,15.9,83,0.00,,,0.01,pywws,2013-02-11 04:04:00,
2013-02-11 04:10:00,40.3,35.2,29.57,East,90,8.3,14.5,82,0.00,,,0.01,pywws,2013-02-11 04:10:00,
2013-02-11 04:20:00,40.3,34.9,29.57,East,90,6.0,9.2,81,0.00,,,0.01,pywws,2013-02-11 04:20:00,
2013-02-11 04:30:00,40.3,34.6,29.57,East,90,5.4,10.7,80,0.00,,,0.01,pywws,2013-02-11 04:30:00,
2013-02-11 04:40:00,40.5,34.8,29.57,NE,45,6.0,10.7,80,0.00,,,0.01,pywws,2013-02-11 04:40:00,
2013-02-11 04:50:00,40.6,35.0,29.57,North,0,6.0,12.1,80,0.00,,,0.01,pywws,2013-02-11 04:50:00,
2013-02-11 05:00:00,40.8,35.1,29.58,ESE,112,6.0,10.7,80,0.00,,,0.01,pywws,2013-02-11 05:00:00,
2013-02-11 05:10:00,40.8,35.1,29.58,North,0,8.3,13.6,80,0.00,,,0.01,pywws,2013-02-11 05:10:00,
2013-02-11 05:20:00,41.0,35.0,29.59,NE,45,6.9,12.1,79,0.00,,,0.01,pywws,2013-02-11 05:20:00,
2013-02-11 05:30:00,41.0,35.0,29.59,SE,135,5.4,9.8,79,0.00,,,0.01,pywws,2013-02-11 05:30:00,
2013-02-11 05:40:00,41.0,35.0,29.59,East,90,8.3,14.5,79,0.00,,,0.01,pywws,2013-02-11 05:40:00,
2013-02-11 05:50:00,41.2,35.2,29.59,SE,135,4.5,9.8,79,0.00,,,0.01,pywws,2013-02-11 05:50:00,
2013-02-11 06:00:00,41.0,34.7,29.60,East,90,6.0,9.2,78,0.00,,,0.01,pywws,2013-02-11 06:00:00,
2013-02-11 06:10:00,41.0,34.7,29.60,East,90,6.9,9.8,78,0.00,,,0.01,pywws,2013-02-11 06:10:00,
2013-02-11 06:20:00,41.2,34.9,29.60,SE,135,6.0,9.2,78,0.00,,,0.01,pywws,2013-02-11 06:20:00,
2013-02-11 06:30:00,41.2,34.9,29.62,ENE,68,5.4,8.3,78,0.00,,,0.01,pywws,2013-02-11 06:30:00,
2013-02-11 06:40:00,41.2,34.5,29.62,East,90,6.0,8.3,77,0.00,,,0.01,pywws,2013-02-11 06:40:00,
2013-02-11 06:50:00,41.0,34.4,29.62,NE,45,6.0,10.7,77,0.00,,,0.01,pywws,2013-02-11 06:50:00,
2013-02-11 07:01:00,41.0,34.4,29.62,East,90,6.9,9.8,77,0.00,,,0.01,pywws,2013-02-11 07:01:00,
2013-02-11 07:10:00,41.0,34.4,29.63,NE,45,6.0,13.0,77,0.00,,,0.01,pywws,2013-02-11 07:10:00,
2013-02-11 07:20:00,40.8,33.9,29.63,East,90,7.6,12.1,76,0.00,,,0.01,pywws,2013-02-11 07:20:00,
2013-02-11 07:30:00,40.8,33.9,29.64,ENE,68,4.5,7.6,76,0.00,,,0.01,pywws,2013-02-11 07:30:00,
2013-02-11 07:40:00,40.8,33.9,29.64,East,90,4.5,7.6,76,0.00,,,0.01,pywws,2013-02-11 07:40:00,
2013-02-11 07:50:00,40.8,33.9,29.65,East,90,6.0,13.6,76,0.00,,,0.01,pywws,2013-02-11 07:50:00,
2013-02-11 08:01:00,40.6,33.7,29.65,East,90,6.0,9.2,76,0.00,,,0.01,pywws,2013-02-11 08:01:00,
2013-02-11 08:10:00,40.6,33.7,29.66,NE,45,8.3,11.4,76,0.00,,,0.01,pywws,2013-02-11 08:10:00,
2013-02-11 08:20:00,40.6,33.3,29.66,SE,135,6.9,11.4,75,0.00,,,0.01,pywws,2013-02-11 08:20:00,
2013-02-11 08:30:00,40.6,33.3,29.66,East,90,8.3,13.0,75,0.00,,,0.01,pywws,2013-02-11 08:30:00,
2013-02-11 08:40:00,40.8,33.5,29.67,East,90,6.9,11.4,75,0.00,,,0.01,pywws,2013-02-11 08:40:00,
2013-02-11 08:50:00,41.0,33.7,29.67,SE,135,8.3,14.5,75,0.00,,,0.01,pywws,2013-02-11 08:50:00,
2013-02-11 09:00:00,41.4,34.0,29.68,East,90,6.9,12.1,75,0.00,,,0.01,pywws,2013-02-11 09:00:00,
2013-02-11 09:10:00,41.5,33.9,29.68,East,90,7.6,11.4,74,0.00,,,0.01,pywws,2013-02-11 09:10:00,
2013-02-11 09:20:00,41.9,33.9,29.69,NE,45,7.6,15.9,73,0.00,,,0.01,pywws,2013-02-11 09:20:00,
2013-02-11 09:30:00,42.3,33.9,29.69,East,90,7.6,12.1,72,0.00,,,0.01,pywws,2013-02-11 09:30:00,
2013-02-11 09:40:00,42.4,34.1,29.69,East,90,9.2,14.5,72,0.00,,,0.01,pywws,2013-02-11 09:40:00,
2013-02-11 09:50:00,43.0,34.2,29.70,NE,45,7.6,10.7,71,0.00,,,0.01,pywws,2013-02-11 09:50:00,
2013-02-11 10:00:00,43.3,34.2,29.70,East,90,9.8,14.5,70,0.00,,,0.01,pywws,2013-02-11 10:00:00,
2013-02-11 10:10:00,43.7,34.2,29.70,NE,45,6.9,15.9,69,0.00,,,0.01,pywws,2013-02-11 10:10:00,
2013-02-11 10:20:00,43.7,33.8,29.71,East,90,6.0,9.2,68,0.00,,,0.01,pywws,2013-02-11 10:20:00,
2013-02-11 10:30:00,44.2,34.4,29.71,East,90,6.9,9.8,68,0.00,,,0.01,pywws,2013-02-11 10:30:00,
2013-02-11 10:40:00,44.8,34.5,29.72,East,90,6.0,9.8,67,0.00,,,0.01,pywws,2013-02-11 10:40:00,
2013-02-11 10:50:00,45.1,34.5,29.72,SE,135,11.4,17.5,66,0.00,,,0.01,pywws,2013-02-11 10:50:00,
2013-02-11 11:01:00,45.5,34.8,29.73,ENE,68,7.6,15.2,66,0.00,,,0.01,pywws,2013-02-11 11:01:00,
2013-02-11 11:10:00,45.3,33.9,29.73,SE,135,9.2,15.9,64,0.00,,,0.01,pywws,2013-02-11 11:10:00,
2013-02-11 11:20:00,45.1,33.7,29.73,East,90,9.8,15.9,64,0.00,,,0.01,pywws,2013-02-11 11:20:00,
2013-02-11 11:30:00,45.5,34.4,29.73,East,90,11.4,18.3,65,0.00,,,0.01,pywws,2013-02-11 11:30:00,
2013-02-11 11:40:00,45.1,33.7,29.74,East,90,6.0,10.7,64,0.00,,,0.01,pywws,2013-02-11 11:40:00,
2013-02-11 11:50:00,45.9,34.8,29.74,NE,45,7.6,13.0,65,0.00,,,0.01,pywws,2013-02-11 11:50:00,
2013-02-11 12:00:00,46.6,34.7,29.75,East,90,9.8,13.6,63,0.00,,,0.01,pywws,2013-02-11 12:00:00,
2013-02-11 12:10:00,46.6,34.3,29.75,East,90,9.8,13.6,62,0.00,,,0.01,pywws,2013-02-11 12:10:00,
2013-02-11 12:20:00,46.8,34.4,29.75,East,90,9.8,15.2,62,0.00,,,0.01,pywws,2013-02-11 12:20:00,
2013-02-11 12:30:00,46.6,34.3,29.76,ESE,112,6.9,13.0,62,0.00,,,0.01,pywws,2013-02-11 12:30:00,
2013-02-11 12:40:00,46.4,33.7,29.76,East,90,7.6,13.0,61,0.00,,,0.01,pywws,2013-02-11 12:40:00,
2013-02-11 12:50:00,46.6,34.3,29.76,East,90,10.7,15.2,62,0.00,,,0.01,pywws,2013-02-11 12:50:00,
2013-02-11 13:00:00,46.2,33.1,29.77,NE,45,8.3,13.6,60,0.00,,,0.01,pywws,2013-02-11 13:00:00,
2013-02-11 13:10:00,46.4,33.7,29.77,NE,45,11.4,16.8,61,0.00,,,0.01,pywws,2013-02-11 13:10:00,
2013-02-11 13:20:00,45.3,32.3,29.77,NE,45,7.6,13.6,60,0.00,,,0.01,pywws,2013-02-11 13:20:00,
2013-02-11 13:30:00,44.4,31.4,29.78,East,90,6.9,13.6,60,0.00,,,0.01,pywws,2013-02-11 13:30:00,
2013-02-11 13:40:00,44.1,31.5,29.78,South,180,10.7,20.6,61,0.00,,,0.01,pywws,2013-02-11 13:40:00,
2013-02-11 13:50:00,45.0,32.3,29.78,East,90,7.6,13.0,61,0.00,,,0.01,pywws,2013-02-11 13:50:00,
2013-02-11 14:00:00,45.3,32.7,29.78,ENE,68,6.9,12.1,61,0.00,,,0.01,pywws,2013-02-11 14:00:00,
2013-02-11 14:10:00,45.3,32.3,29.79,East,90,10.7,18.3,60,0.00,,,0.01,pywws,2013-02-11 14:10:00,
2013-02-11 14:20:00,44.1,30.2,29.79,East,90,6.9,13.0,58,0.00,,,0.01,pywws,2013-02-11 14:20:00,
2013-02-11 14:30:00,43.5,30.2,29.79,East,90,9.8,13.0,59,0.00,,,0.01,pywws,2013-02-11 14:30:00,
2013-02-11 14:40:00,43.2,30.2,29.79,East,90,6.0,9.8,60,0.00,,,0.01,pywws,2013-02-11 14:40:00,
2013-02-11 14:50:00,42.6,29.7,29.79,NE,45,5.4,8.3,60,0.00,,,0.01,pywws,2013-02-11 14:50:00,
2013-02-11 15:01:00,42.3,29.8,29.80,SE,135,6.9,9.2,61,0.00,,,0.01,pywws,2013-02-11 15:01:00,
2013-02-11 15:10:00,42.1,29.6,29.80,East,90,6.9,13.0,61,0.00,,,0.01,pywws,2013-02-11 15:10:00,
2013-02-11 15:20:00,41.7,29.3,29.80,NE,45,5.4,12.1,61,0.00,,,0.01,pywws,2013-02-11 15:20:00,
2013-02-11 15:30:00,41.5,29.5,29.81,East,90,5.4,9.8,62,0.00,,,0.01,pywws,2013-02-11 15:30:00,
2013-02-11 15:40:00,41.4,29.3,29.81,SE,135,6.9,10.7,62,0.00,,,0.01,pywws,2013-02-11 15:40:00,
2013-02-11 15:50:00,41.4,28.9,29.81,East,90,8.3,12.1,61,0.00,,,0.01,pywws,2013-02-11 15:50:00,
2013-02-11 16:00:00,41.2,29.2,29.81,NE,45,7.6,13.6,62,0.00,,,0.01,pywws,2013-02-11 16:00:00,
2013-02-11 16:10:00,41.0,29.0,29.81,East,90,8.3,13.6,62,0.00,,,0.01,pywws,2013-02-11 16:10:00,
2013-02-11 16:20:00,41.0,29.0,29.82,East,90,8.3,16.8,62,0.00,,,0.01,pywws,2013-02-11 16:20:00,
2013-02-11 16:30:00,40.8,28.8,29.82,North,0,10.7,15.2,62,0.00,,,0.01,pywws,2013-02-11 16:30:00,
2013-02-11 16:40:00,40.6,28.3,29.82,East,90,7.6,12.1,61,0.00,,,0.01,pywws,2013-02-11 16:40:00,
2013-02-11 16:52:00,40.6,28.3,29.82,NE,45,6.0,11.4,61,0.00,,,0.01,pywws,2013-02-11 16:52:00,
2013-02-11 17:00:00,40.5,28.1,29.83,East,90,6.0,9.2,61,0.00,,,0.01,pywws,2013-02-11 17:00:00,
2013-02-11 17:10:00,40.3,27.9,29.83,East,90,8.3,13.0,61,0.00,,,0.01,pywws,2013-02-11 17:10:00,
2013-02-11 17:20:00,40.3,27.9,29.83,NE,45,6.0,9.8,61,0.00,,,0.01,pywws,2013-02-11 17:20:00,
2013-02-11 17:30:00,40.3,27.9,29.83,East,90,5.4,9.8,61,0.00,,,0.01,pywws,2013-02-11 17:30:00,
2013-02-11 17:40:00,40.3,28.3,29.84,NE,45,4.5,8.3,62,0.00,,,0.01,pywws,2013-02-11 17:40:00,
2013-02-11 17:50:00,40.3,27.9,29.84,East,90,5.4,11.4,61,0.00,,,0.01,pywws,2013-02-11 17:50:00,
2013-02-11 18:01:00,40.1,27.7,29.85,East,90,7.6,9.8,61,0.00,,,0.01,pywws,2013-02-11 18:01:00,
2013-02-11 18:10:00,40.1,27.7,29.85,NE,45,3.8,5.4,61,0.00,,,0.01,pywws,2013-02-11 18:10:00,
2013-02-11 18:20:00,40.3,28.3,29.85,East,90,5.4,9.8,62,0.00,,,0.01,pywws,2013-02-11 18:20:00,
2013-02-11 18:30:00,40.3,28.3,29.85,North,0,6.0,13.6,62,0.00,,,0.01,pywws,2013-02-11 18:30:00,
2013-02-11 18:40:00,40.1,28.1,29.85,NE,45,2.2,9.8,62,0.00,,,0.01,pywws,2013-02-11 18:40:00,
2013-02-11 18:50:00,40.1,28.1,29.86,NE,45,4.5,6.0,62,0.00,,,0.01,pywws,2013-02-11 18:50:00,
2013-02-11 19:00:00,39.9,28.0,29.86,East,90,8.3,13.6,62,0.00,,,0.01,pywws,2013-02-11 19:00:00,
2013-02-11 19:10:00,39.9,28.0,29.86,NE,45,5.4,7.6,62,0.00,,,0.01,pywws,2013-02-11 19:10:00,
2013-02-11 19:20:00,40.1,27.7,29.86,East,90,4.5,6.0,61,0.00,,,0.01,pywws,2013-02-11 19:20:00,
2013-02-11 19:30:00,40.1,27.7,29.86,East,90,7.6,11.4,61,0.00,,,0.01,pywws,2013-02-11 19:30:00,
2013-02-11 19:40:00,40.3,27.5,29.87,East,90,4.5,9.2,60,0.00,,,0.01,pywws,2013-02-11 19:40:00,
2013-02-11 19:50:00,40.3,27.9,29.87,NE,45,6.9,13.0,61,0.00,,,0.01,pywws,2013-02-11 19:50:00,
2013-02-11 20:01:00,40.3,27.5,29.87,ESE,112,5.4,9.2,60,0.00,,,0.01,pywws,2013-02-11 20:01:00,
2013-02-11 20:10:00,40.3,27.5,29.87,East,90,6.9,9.8,60,0.00,,,0.01,pywws,2013-02-11 20:10:00,
2013-02-11 20:20:00,40.3,27.5,29.88,NW,315,6.0,11.4,60,0.00,,,0.01,pywws,2013-02-11 20:20:00,
2013-02-11 20:30:00,40.3,27.9,29.88,NE,45,5.4,12.1,61,0.00,,,0.01,pywws,2013-02-11 20:30:00,
2013-02-11 20:40:00,40.3,28.3,29.88,East,90,4.5,8.3,62,0.00,,,0.01,pywws,2013-02-11 20:40:00,
2013-02-11 20:50:00,40.3,28.3,29.89,NE,45,6.9,11.4,62,0.00,,,0.01,pywws,2013-02-11 20:50:00,
2013-02-11 21:00:00,40.3,28.3,29.90,SE,135,8.3,14.5,62,0.00,,,0.01,pywws,2013-02-11 21:00:00,
2013-02-11 21:10:00,40.3,28.3,29.90,East,90,7.6,13.0,62,0.00,,,0.01,pywws,2013-02-11 21:10:00,
2013-02-11 21:20:00,40.3,28.3,29.90,East,90,4.5,8.3,62,0.00,,,0.01,pywws,2013-02-11 21:20:00,
2013-02-11 21:30:00,40.3,28.3,29.91,SE,135,5.4,10.7,62,0.00,,,0.01,pywws,2013-02-11 21:30:00,
2013-02-11 21:40:00,40.3,28.7,29.91,NE,45,6.0,9.8,63,0.00,,,0.01,pywws,2013-02-11 21:40:00,
2013-02-11 21:50:00,40.3,28.7,29.91,East,90,6.9,11.4,63,0.00,,,0.01,pywws,2013-02-11 21:50:00,
2013-02-11 22:00:00,40.3,28.7,29.91,SE,135,7.6,13.6,63,0.00,,,0.01,pywws,2013-02-11 22:00:00,
2013-02-11 22:10:00,40.3,29.1,29.91,East,90,12.1,18.3,64,0.00,,,0.01,pywws,2013-02-11 22:10:00,
2013-02-11 22:20:00,40.3,29.1,29.91,NE,45,9.2,15.2,64,0.00,,,0.01,pywws,2013-02-11 22:20:00,
2013-02-11 22:30:00,40.1,28.5,29.91,East,90,10.7,15.9,63,0.00,,,0.01,pywws,2013-02-11 22:30:00,
2013-02-11 22:40:00,40.1,28.5,29.91,East,90,6.0,9.8,63,0.00,,,0.01,pywws,2013-02-11 22:40:00,
2013-02-11 22:50:00,40.3,28.7,29.92,East,90,8.3,12.1,63,0.00,,,0.01,pywws,2013-02-11 22:50:00,
2013-02-11 23:02:00,40.1,28.5,29.92,East,90,8.3,11.4,63,0.00,,,0.01,pywws,2013-02-11 23:02:00,
2013-02-11 23:10:00,40.1,28.5,29.93,East,90,5.4,9.2,63,0.00,,,0.01,pywws,2013-02-11 23:10:00,
2013-02-11 23:20:00,40.1,28.5,29.93,East,90,7.6,13.0,63,0.00,,,0.01,pywws,2013-02-11 23:20:00,
2013-02-11 23:30:00,40.1,28.1,29.93,SE,135,9.2,15.9,62,0.00,,,0.01,pywws,2013-02-11 23:30:00,
2013-02-11 23:40:00,40.1,28.1,29.94,East,90,6.0,9.8,62,0.00,,,0.01,pywws,2013-02-11 23:40:00,
2013-02-11 23:50:00,40.3,28.3,29.94,East,90,5.4,9.8,62,0.00,,,0.01,pywws,2013-02-11 23:50:00,